CAPE
2220 1472 1466 1854 1182 574 603 571 934 1045 290 118 49 564 381 116 131 60 28 56 44 0
2012 2476 2533 1900 1900 706 124 720 788 1129 401 118 121 166 382 170 37 227 50 5 25 6
2474 2195 2419 1876 1788 1455 673 1374 696 1116 577 383 170 192 379 134 252 121 205 105 83 35
3006 2505 2304 2310 1798 1454 1399 954 928 1022 756 310 366 401 423 110 61 339 38 189 98 127
2806 2851 2396 2148 2119 1912 1218 1133 1229 1035 911 444 133 406 444 95 180 82 288 140 52 20
2617 2904 2793 2327 2318 2519 1675 1656 1252 1365 946 570 362 354 520 140 53 115 159 255 136 50
2853 2858 2917 2921 2352 2525 2544 1783 1168 1141 906 573 342 399 365 197 87 117 91 74 200 94
2833 2914 2943 2876 3039 2505 2571 2243 1595 1177 871 598 286 371 173 201 192 172 251 155 143 114
2553 2701 2677 2781 2781 3121 2502 2737 1848 1206 1102 740 477 434 227 244 227 242 316 255 325 233
2456 2558 2593 2650 2695 3063 3059 3013 2680 1928 1199 1008 658 394 97 256 192 317 296 273 399 425
2378 2466 2665 2713 2931 2833 3238 3091 3051 2507 1488 1236 761 442 17 127 76 199 268 429 438 142
2237 2501 2555 2836 2804 3060 3006 3224 3191 2565 1713 1380 400 20 0 0 0 23 54 96 36 0
2089 2354 2737 2914 2955 3090 3232 3259 2712 1762 1326 925 372 0 0 0 0 0 0 11 13 0
2724 2805 3108 3094 3267 3380 2683 1755 1337 1059 718 467 314 0 0 0 0 0 0 0 129 26
CIN
-61 -107 -120 -66 -119 -218 -218 -209 -186 -190 -325 -369 -399 -234 -275 -352 -302 -343 -371 -390 -375 0
-112 -41 -50 -69 -77 -206 -321 -223 -242 -218 -330 -408 -401 -376 -283 -340 -387 -273 -310 -341 -277 -175
-93 -95 -60 -98 -96 -125 -212 -154 -277 -237 -312 -355 -399 -370 -295 -365 -268 -295 -235 -247 -214 -197
-69 -103 -80 -91 -143 -168 -128 -253 -282 -263 -302 -380 -379 -336 -309 -384 -358 -208 -261 -159 -170 -176
-98 -81 -105 -117 -148 -161 -206 -271 -246 -278 -309 -380 -451 -343 -303 -379 -293 -307 -179 -181 -184 -230
-132 -100 -107 -156 -137 -126 -176 -188 -267 -262 -323 -394 -416 -384 -289 -361 -338 -264 -207 -163 -159 -193
-149 -158 -144 -132 -167 -132 -136 -192 -303 -305 -332 -379 -422 -391 -370 -421 -387 -280 -221 -157 -117 -152
-213 -170 -139 -128 -115 -153 -114 -169 -236 -302 -327 -373 -433 -408 -509 -510 -455 -326 -196 -147 -111 -112
-245 -203 -190 -166 -154 -100 -148 -97 -198 -293 -296 -330 -369 -365 -478 -463 -369 -296 -155 -121 -68 -43
-290 -255 -234 -201 -179 -120 -104 -78 -117 -195 -276 -296 -345 -418 -593 -427 -395 -230 -136 -97 -46 -36
-352 -307 -237 -206 -174 -150 -84 -68 -70 -111 -250 -242 -324 -392 -287 -471 -426 -225 -137 -55 -47 -89
-400 -329 -277 -221 -185 -136 -92 -51 -39 -98 -194 -201 -477 -503 0 0 0 -346 -193 -134 -152 0
-401 -337 -290 -227 -162 -120 -59 -57 -98 -206 -263 -327 -475 0 0 0 0 0 0 -322 -207 0
-284 -263 -234 -183 -110 -79 -154 -277 -343 -352 -380 -430 -458 0 0 0 0 0 0 0 -78 -131
Wind_Speed
11 9 7 7 5 7 9 8 8 9 10 8 8 6 6 4 4 5 5 7 8 4
13 11 8 8 7 7 7 9 11 11 12 10 8 7 7 5 6 5 4 5 3 4
15 14 9 8 9 8 7 8 12 11 12 11 10 8 7 5 5 5 5 5 5 3
15 14 13 8 9 11 7 9 12 13 13 13 11 10 8 7 7 7 7 5 6 7
15 15 14 15 11 10 12 10 14 14 13 13 12 10 11 10 7 8 7 7 6 6
17 16 17 17 15 11 13 11 13 15 16 14 13 12 12 9 7 6 6 7 7 7
19 20 18 17 16 14 13 14 13 15 15 14 13 11 10 8 8 7 6 7 7 7
19 18 16 16 15 15 13 13 12 11 11 10 10 8 13 13 12 9 7 7 6 7
18 17 16 16 14 14 15 11 12 11 10 10 9 15 15 14 10 7 7 6 6 6
18 17 18 15 14 13 15 11 13 11 12 12 12 12 10 11 6 7 7 7 6 6
20 20 17 17 15 15 12 15 12 13 11 11 8 14 12 13 7 6 7 7 7 6
20 19 18 18 17 13 13 10 10 11 11 11 7 13 13 9 6 5 5 5 6 7
19 18 18 17 16 12 10 8 8 8 9 11 10 12 12 11 5 6 5 6 7 12
15 16 15 15 12 10 10 10 9 9 6 8 8 10 14 13 7 7 6 6 6 7
Wind_Direction
187 202 207 184 177 172 176 177 174 160 165 167 169 172 167 167 169 201 215 172 162 163
191 197 190 190 174 182 180 176 182 169 169 171 177 178 166 167 197 184 215 270 265 153
193 199 194 181 191 181 190 163 176 171 174 171 180 177 170 180 188 190 211 214 211 231
192 191 196 192 197 187 183 162 171 177 176 182 179 182 174 185 186 200 208 207 195 215
191 189 195 206 198 186 193 174 178 179 180 187 188 179 182 191 194 203 205 209 204 217
193 193 199 204 203 188 193 188 182 182 186 187 188 187 193 189 193 199 208 205 210 215
195 200 202 201 203 200 193 191 182 188 190 190 186 183 178 176 183 194 206 213 212 214
197 200 202 204 202 202 200 197 187 181 187 182 178 175 183 190 191 181 194 211 214 214
195 197 201 201 200 196 202 193 188 184 172 174 188 191 189 188 189 176 190 204 217 215
192 196 199 194 193 192 195 189 190 181 183 185 191 186 175 173 170 167 189 202 207 222
189 196 193 194 191 194 186 196 183 191 181 181 183 177 167 176 161 182 196 200 199 195
188 189 191 194 193 188 191 187 179 178 172 173 153 156 158 158 179 196 208 206 190 191
186 186 188 185 183 182 172 161 150 147 162 161 155 167 171 171 165 189 206 214 207 216
177 179 172 169 170 136 134 135 141 140 140 152 151 175 180 183 191 206 209 215 215 224